Skip Page Navigation
NASA JPL Caltech
NASA Logo - Jet Propulsion Laboratory + View the NASA Portal
+ Center for Near-Earth Object Studies
JPL Home Earth Solar System Stars & Galaxies Technology
JPL Solar System Dynamics
BODIES ORBITS EPHEMERIDES TOOLS PHYSICAL DATA DISCOVERY FAQ SITE MAP
JPL Small-Body Database Browser
Search: [ help ]  
15580 (2000 GE71)
Classification: Main-belt Asteroid          SPK-ID: 2015580
Ephemeris | Orbit Diagram | Orbital Elements | Mission Design | Physical Parameters | Discovery Circumstances | Close-Approach Data ]

[ show orbit diagram ]
Orbital Elements at Epoch 2459200.5 (2020-Dec-17.0) TDB
Reference: JPL 41 (heliocentric ecliptic J2000)
 Element Value Uncertainty (1-sigma)   Units 
e .04936999927879 1.9207e-08  
a 2.624250670457613 9.0268e-09 au
q 2.494691416749756 5.1177e-08 au
i 7.388171496212905 8.8955e-07 deg
node 208.0820755812367 3.0944e-06 deg
peri 270.0797019501572 1.21e-05 deg
M 40.04685141598431 1.0439e-05 deg
tp 2459027.768208330132
(2020-Jun-27.26820833)
4.5138e-05 TDB
period 1552.767391254448
4.25
8.0117e-06
2.193e-08
d
yr
n .231844126832908 1.1962e-09 deg/d
Q 2.753809924165469 9.4725e-09 au
  Orbit Determination Parameters
   # obs. used (total)      2641  
   data-arc span      16238 days (44.46 yr)  
   first obs. used      1976-09-29  
   last obs. used      2021-03-15  
   planetary ephem.      DE441  
   SB-pert. ephem.      SB441-N16  
   condition code      0  
   norm. resid. RMS      .47983  
   source      ORB  
   producer      Otto Matic  
   solution date      2021-Apr-13 01:03:19  

Additional Information
 Earth MOID = 1.52408 au 
 Jupiter MOID = 2.29831 au 
 T_jup = 3.390 
[ show covariance matrix ]

Ephemeris | Orbit Diagram | Orbital Elements | Mission Design | Physical Parameters | Discovery Circumstances | Close-Approach Data ]

Physical Parameter Table
Parameter Symbol Value Units Sigma Reference Notes
absolute magnitude H 13.16   n/a E2021B10  
diameter diameter 11.028 km 0.101 urn:nasa:pds:neowise_diameters_albedos::2.0[mainbelt] (http://adsabs.harvard.edu/abs/2011ApJ...741...68M)  
geometric albedo albedo 0.100   0.006 urn:nasa:pds:neowise_diameters_albedos::2.0[mainbelt] (http://adsabs.harvard.edu/abs/2011ApJ...741...68M)  

15580 (2000 GE71)          Discovered 2000-Apr-05 by LINEAR at Socorro
Reference: 20000621/Numbers.arcLast Updated: 2004-04-19

[ show close-approach data ]
Alternate Designations
 2000 GE71 = 1976 SJ9 = 1976 UZ20 = 1989 UV4 
Ephemeris | Orbit Diagram | Orbital Elements | Mission Design | Physical Parameters | Discovery Circumstances | Close-Approach Data ]
ABOUT SSD CREDITS/AWARDS PRIVACY/COPYRIGHT GLOSSARY LINKS
FirstGov 2021-Apr-16 03:43 UT
(server date/time)  
NASA Home Page
Site Manager:   Ryan S. Park
Webmaster  Alan B. Chamberlin